"read_dt","SO2 (ppb)","flags","PMT voltage (V)","lamp voltage (V)","lamp intensity (Hz)","internal temp (C)","react chamber temp (C)","sample flow (l/min)","pres (mmHg)","SO2 bkg (ppb)","SO2 coefficient"
2016-04-25 00:00:00,1879E-3,5C000400,-0724,0836,12095,028.0,045.4,0.256,766.5,01.15,0.508
2016-04-25 00:01:00,1877E-3,5C000400,-0724,0836,12166,028.0,045.4,0.255,766.6,01.15,0.508
2016-04-25 00:02:00,1800E-3,5C000400,-0724,0836,12069,028.0,045.4,0.255,766.7,01.15,0.508
2016-04-25 00:03:00,1922E-3,5C000400,-0724,0836,12159,028.0,045.4,0.255,766.7,01.15,0.508
2016-04-25 00:04:00,1846E-3,5C000400,-0724,0836,12221,028.1,045.4,0.256,766.7,01.15,0.508
2016-04-25 00:05:00,1881E-3,5C000400,-0724,0836,12146,028.0,045.4,0.255,766.7,01.15,0.508
2016-04-25 00:06:00,1994E-3,5C000400,-0724,0836,12097,028.1,045.4,0.255,766.7,01.15,0.508
2016-04-25 00:07:00,1795E-3,5C000400,-0724,0835,12134,028.1,045.4,0.256,766.7,01.15,0.508
2016-04-25 00:08:00,1852E-3,5C000400,-0724,0836,12178,028.1,045.4,0.256,766.7,01.15,0.508
2016-04-25 00:09:00,1915E-3,5C000400,-0724,0836,11975,028.1,045.4,0.255,766.7,01.15,0.508
2016-04-25 00:10:00,1872E-3,5C000400,-0724,0836,12130,028.1,045.4,0.256,766.6,01.15,0.508
2016-04-25 00:11:00,1991E-3,5C000400,-0724,0835,12083,028.1,045.4,0.255,766.7,01.15,0.508
2016-04-25 00:12:00,1937E-3,5C000400,-0724,0836,12265,028.1,045.4,0.255,766.7,01.15,0.508
2016-04-25 00:13:00,1915E-3,5C000400,-0724,0836,12151,028.1,045.4,0.255,766.7,01.15,0.508
2016-04-25 00:14:00,1860E-3,5C000400,-0724,0836,12180,028.1,045.4,0.256,766.7,01.15,0.508
2016-04-25 00:15:00,1833E-3,5C000400,-0724,0836,12112,028.1,045.4,0.255,766.8,01.15,0.508
2016-04-25 00:16:00,1749E-3,5C000400,-0724,0836,12177,028.1,045.4,0.255,766.7,01.15,0.508
2016-04-25 00:17:00,1941E-3,5C000400,-0724,0836,12145,028.1,045.4,0.255,766.7,01.15,0.508
2016-04-25 00:18:00,1797E-3,5C000400,-0724,0837,12076,028.1,045.4,0.255,766.7,01.15,0.508
2016-04-25 00:19:00,1876E-3,5C000400,-0724,0836,12289,028.1,045.4,0.255,766.7,01.15,0.508
2016-04-25 00:20:00,1974E-3,5C000400,-0724,0836,12151,028.1,045.4,0.255,766.6,01.15,0.508
2016-04-25 00:21:00,1893E-3,5C000400,-0724,0836,12097,028.1,045.4,0.255,766.6,01.15,0.508
2016-04-25 00:22:00,1915E-3,5C000400,-0724,0835,12035,028.1,045.4,0.255,766.5,01.15,0.508
2016-04-25 00:23:00,1846E-3,5C000400,-0724,0836,12094,028.1,045.4,0.255,766.5,01.15,0.508
2016-04-25 00:24:00,1857E-3,5C000400,-0724,0836,12043,028.1,045.4,0.255,766.6,01.15,0.508
2016-04-25 00:25:00,1863E-3,5C000400,-0724,0836,12109,028.1,045.4,0.256,766.6,01.15,0.508
2016-04-25 00:26:00,2017E-3,5C000400,-0724,0836,12044,028.1,045.4,0.255,766.6,01.15,0.508
2016-04-25 00:27:00,1891E-3,5C000400,-0724,0837,12130,028.1,045.4,0.255,766.6,01.15,0.508
2016-04-25 00:28:00,1878E-3,5C000400,-0724,0837,12081,028.1,045.4,0.255,766.7,01.15,0.508
2016-04-25 00:29:00,1910E-3,5C000400,-0724,0836,12112,028.1,045.4,0.255,766.7,01.15,0.508
2016-04-25 00:30:00,2022E-3,5C000400,-0724,0835,12121,028.1,045.4,0.255,766.6,01.15,0.508
2016-04-25 00:31:00,1800E-3,5C000400,-0724,0837,12161,028.1,045.4,0.255,766.6,01.15,0.508
2016-04-25 00:32:00,1899E-3,5C000400,-0724,0836,12093,028.1,045.4,0.255,766.6,01.15,0.508
2016-04-25 00:33:00,1843E-3,5C000400,-0724,0836,12091,028.1,045.4,0.255,766.6,01.15,0.508
2016-04-25 00:34:00,1982E-3,5C000400,-0724,0835,12099,028.1,045.4,0.255,766.6,01.15,0.508
2016-04-25 00:35:00,1838E-3,5C000400,-0724,0836,12191,028.1,045.4,0.255,766.6,01.15,0.508
2016-04-25 00:36:00,1948E-3,5C000400,-0724,0836,12214,028.1,045.4,0.255,766.6,01.15,0.508
2016-04-25 00:37:00,1817E-3,5C000400,-0724,0836,12082,028.2,045.4,0.255,766.6,01.15,0.508
2016-04-25 00:38:00,1816E-3,5C000400,-0724,0835,12193,028.1,045.4,0.255,766.5,01.15,0.508
2016-04-25 00:39:00,1952E-3,5C000400,-0724,0836,12175,028.1,045.4,0.255,766.5,01.15,0.508
2016-04-25 00:40:00,1988E-3,5C000400,-0724,0836,12073,028.1,045.4,0.255,766.6,01.15,0.508
2016-04-25 00:41:00,1977E-3,5C000400,-0724,0836,12049,028.1,045.4,0.255,766.6,01.15,0.508
2016-04-25 00:42:00,1993E-3,5C000400,-0724,0836,12162,028.1,045.4,0.255,766.6,01.15,0.508
2016-04-25 00:43:00,2023E-3,5C000400,-0724,0836,12065,028.2,045.4,0.255,766.6,01.15,0.508
2016-04-25 00:44:00,1928E-3,5C000400,-0724,0836,12162,028.2,045.4,0.255,766.6,01.15,0.508
2016-04-25 00:45:00,1836E-3,5C000400,-0724,0835,12132,028.1,045.4,0.255,766.6,01.15,0.508
2016-04-25 00:46:00,1842E-3,5C000400,-0724,0837,12089,028.2,045.4,0.255,766.6,01.15,0.508
2016-04-25 00:47:00,1840E-3,5C000400,-0724,0836,11985,028.2,045.4,0.255,766.6,01.15,0.508
2016-04-25 00:48:00,2001E-3,5C000400,-0724,0836,12092,028.1,045.4,0.255,766.5,01.15,0.508
2016-04-25 00:49:00,1813E-3,5C000400,-0724,0836,12047,028.1,045.4,0.255,766.5,01.15,0.508
2016-04-25 00:50:00,1957E-3,5C000400,-0724,0836,12170,028.2,045.4,0.255,766.5,01.15,0.508
2016-04-25 00:51:00,1924E-3,5C000400,-0724,0836,12139,028.2,045.4,0.255,766.4,01.15,0.508
2016-04-25 00:52:00,1814E-3,5C000400,-0724,0836,11996,028.2,045.4,0.255,766.4,01.15,0.508
2016-04-25 00:53:00,1756E-3,5C000400,-0724,0837,12059,028.2,045.4,0.255,766.4,01.15,0.508
2016-04-25 00:54:00,1777E-3,5C000400,-0724,0836,12262,028.2,045.4,0.255,766.4,01.15,0.508
2016-04-25 00:55:00,1931E-3,5C000400,-0724,0836,11955,028.2,045.4,0.255,766.4,01.15,0.508
2016-04-25 00:56:00,1970E-3,5C000400,-0724,0836,12172,028.2,045.4,0.255,766.4,01.15,0.508
2016-04-25 00:57:00,1876E-3,5C000400,-0724,0835,12016,028.2,045.5,0.255,766.4,01.15,0.508
2016-04-25 00:58:00,1941E-3,5C000400,-0724,0836,12151,028.2,045.4,0.255,766.4,01.15,0.508
2016-04-25 00:59:00,1833E-3,5C000400,-0724,0836,12193,028.2,045.4,0.255,766.4,01.15,0.508
2016-04-25 01:00:00,1939E-3,5C000400,-0724,0836,12180,028.2,045.4,0.255,766.3,01.15,0.508
2016-04-25 01:01:00,1896E-3,5C000400,-0724,0836,12217,028.2,045.4,0.255,766.4,01.15,0.508
2016-04-25 01:02:00,1893E-3,5C000400,-0724,0836,12126,028.2,045.4,0.255,766.2,01.15,0.508
2016-04-25 01:03:00,1842E-3,5C000400,-0724,0836,11994,028.2,045.4,0.255,766.3,01.15,0.508
2016-04-25 01:04:00,1936E-3,5C000400,-0724,0836,12143,028.2,045.4,0.255,766.3,01.15,0.508
2016-04-25 01:05:00,1945E-3,5C000400,-0724,0837,12186,028.2,045.4,0.255,766.2,01.15,0.508
2016-04-25 01:06:00,1901E-3,5C000400,-0724,0836,12056,028.2,045.4,0.255,766.3,01.15,0.508
2016-04-25 01:07:00,1828E-3,5C000400,-0724,0836,12113,028.2,045.4,0.255,766.2,01.15,0.508
2016-04-25 01:08:00,1874E-3,5C000400,-0724,0836,12048,028.2,045.4,0.256,766.2,01.15,0.508
2016-04-25 01:09:00,1924E-3,5C000400,-0724,0836,12124,028.2,045.4,0.255,766.1,01.15,0.508
2016-04-25 01:10:00,1869E-3,5C000400,-0724,0836,12137,028.2,045.4,0.255,766.2,01.15,0.508
2016-04-25 01:11:00,2036E-3,5C000400,-0724,0836,12075,028.2,045.4,0.255,766.1,01.15,0.508
2016-04-25 01:12:00,1800E-3,5C000400,-0724,0837,12071,028.2,045.4,0.255,766.1,01.15,0.508
2016-04-25 01:13:00,1786E-3,5C000400,-0724,0836,12099,028.2,045.4,0.255,766.1,01.15,0.508
2016-04-25 01:14:00,1927E-3,5C000400,-0724,0836,12154,028.2,045.4,0.255,766.1,01.15,0.508
2016-04-25 01:15:00,1927E-3,5C000400,-0724,0836,12150,028.2,045.4,0.255,766.0,01.15,0.508
2016-04-25 01:16:00,1950E-3,5C000400,-0724,0836,12096,028.2,045.4,0.255,766.0,01.15,0.508
2016-04-25 01:17:00,1838E-3,5C000400,-0724,0836,12070,028.2,045.4,0.255,766.1,01.15,0.508
2016-04-25 01:18:00,1872E-3,5C000400,-0724,0836,12188,028.3,045.4,0.255,766.0,01.15,0.508
2016-04-25 01:19:00,1960E-3,5C000400,-0724,0836,12113,028.2,045.4,0.255,766.0,01.15,0.508
2016-04-25 01:20:00,1910E-3,5C000400,-0724,0836,12129,028.3,045.4,0.255,765.9,01.15,0.508
2016-04-25 01:21:00,1894E-3,5C000400,-0724,0837,12030,028.3,045.4,0.255,765.8,01.16,0.508
2016-04-25 01:22:00,1836E-3,5C000400,-0724,0836,12090,028.3,045.4,0.255,765.8,01.16,0.508
2016-04-25 01:23:00,1852E-3,5C000400,-0724,0836,12173,028.2,045.4,0.255,765.7,01.16,0.508
2016-04-25 01:24:00,1858E-3,5C000400,-0724,0836,12072,028.2,045.4,0.255,765.6,01.16,0.508
2016-04-25 01:25:00,1898E-3,5C000400,-0724,0836,12180,028.3,045.4,0.255,765.5,01.16,0.508
2016-04-25 01:26:00,1901E-3,5C000400,-0724,0836,12105,028.3,045.4,0.254,765.5,01.16,0.508
2016-04-25 01:27:00,1875E-3,5C000400,-0724,0836,12099,028.3,045.4,0.255,765.5,01.16,0.508
2016-04-25 01:28:00,1894E-3,5C000400,-0724,0836,12126,028.2,045.4,0.255,765.5,01.16,0.508
2016-04-25 01:29:00,1865E-3,5C000400,-0724,0836,12069,028.2,045.4,0.255,765.5,01.16,0.508
2016-04-25 01:30:00,2007E-3,5C000400,-0724,0836,12020,028.3,045.4,0.255,765.4,01.16,0.508
2016-04-25 01:31:00,1781E-3,5C000400,-0724,0836,12279,028.3,045.4,0.255,765.4,01.16,0.508
2016-04-25 01:32:00,1898E-3,5C000400,-0724,0836,12116,028.3,045.4,0.255,765.4,01.16,0.508
2016-04-25 01:33:00,1811E-3,5C000400,-0724,0837,12203,028.3,045.4,0.254,765.4,01.16,0.508
2016-04-25 01:34:00,1909E-3,5C000400,-0724,0836,12149,028.2,045.4,0.255,765.5,01.16,0.508
2016-04-25 01:35:00,1968E-3,5C000400,-0724,0836,11997,028.2,045.4,0.255,765.4,01.16,0.508
2016-04-25 01:36:00,1879E-3,5C000400,-0724,0837,11870,028.2,045.4,0.255,765.4,01.16,0.508
2016-04-25 01:37:00,1934E-3,5C000400,-0724,0836,12082,028.2,045.4,0.255,765.5,01.16,0.508
2016-04-25 01:38:00,2009E-3,5C000400,-0724,0837,12226,028.2,045.4,0.255,765.5,01.16,0.508
2016-04-25 01:39:00,2008E-3,5C000400,-0724,0836,12109,028.3,045.4,0.255,765.5,01.16,0.508
2016-04-25 01:40:00,1731E-3,5C000400,-0724,0836,12245,028.2,045.4,0.255,765.6,01.16,0.508
2016-04-25 01:41:00,2006E-3,5C000400,-0724,0836,12141,028.2,045.4,0.255,765.6,01.16,0.508
2016-04-25 01:42:00,1999E-3,5C000400,-0724,0836,11877,028.3,045.4,0.255,765.5,01.16,0.508
2016-04-25 01:43:00,1962E-3,5C000400,-0724,0836,12222,028.3,045.4,0.254,765.6,01.16,0.508
2016-04-25 01:44:00,1842E-3,5C000400,-0724,0836,12178,028.2,045.4,0.255,765.5,01.16,0.508
2016-04-25 01:45:00,1911E-3,5C000400,-0724,0836,12207,028.3,045.4,0.255,765.5,01.16,0.508
2016-04-25 01:46:00,2072E-3,5C000400,-0724,0836,12040,028.2,045.4,0.255,765.5,01.16,0.508
2016-04-25 01:47:00,1998E-3,5C000400,-0724,0836,12125,028.2,045.4,0.255,765.4,01.16,0.508
2016-04-25 01:48:00,1950E-3,5C000400,-0724,0836,12083,028.2,045.4,0.255,765.4,01.16,0.508
2016-04-25 01:49:00,2031E-3,5C000400,-0724,0836,12094,028.2,045.4,0.255,765.4,01.16,0.508
2016-04-25 01:50:00,1913E-3,5C000400,-0724,0836,12190,028.2,045.4,0.255,765.4,01.16,0.508
2016-04-25 01:51:00,1812E-3,5C000400,-0724,0836,12088,028.2,045.4,0.255,765.5,01.16,0.508
2016-04-25 01:52:00,1770E-3,5C000400,-0724,0836,12174,028.2,045.4,0.255,765.4,01.16,0.508
2016-04-25 01:53:00,2004E-3,5C000400,-0724,0836,12089,028.2,045.4,0.255,765.3,01.16,0.508
2016-04-25 01:54:00,1736E-3,5C000400,-0724,0835,12160,028.2,045.4,0.255,765.4,01.16,0.508
2016-04-25 01:55:00,1930E-3,5C000400,-0724,0836,11930,028.2,045.4,0.255,765.5,01.16,0.508
2016-04-25 01:56:00,1832E-3,5C000400,-0724,0837,12125,028.2,045.4,0.255,765.4,01.16,0.508
2016-04-25 01:57:00,1901E-3,5C000400,-0724,0836,12174,028.2,045.4,0.255,765.4,01.16,0.508
2016-04-25 01:58:00,1879E-3,5C000400,-0724,0836,12136,028.2,045.4,0.255,765.5,01.16,0.508
2016-04-25 01:59:00,1798E-3,5C000400,-0724,0837,12131,028.2,045.4,0.255,765.5,01.16,0.508
2016-04-25 02:00:00,1922E-3,5C000400,-0724,0836,12113,028.2,045.4,0.255,765.4,01.16,0.508
2016-04-25 02:01:00,1825E-3,5C000400,-0724,0836,12131,028.2,045.4,0.255,765.4,01.16,0.508
2016-04-25 02:02:00,1975E-3,5C000400,-0724,0836,12028,028.2,045.4,0.255,765.4,01.16,0.508
2016-04-25 02:03:00,1783E-3,5C000400,-0724,0837,12131,028.2,045.4,0.255,765.4,01.16,0.508
2016-04-25 02:04:00,1812E-3,5C000400,-0724,0837,12179,028.2,045.4,0.255,765.4,01.16,0.508
2016-04-25 02:05:00,1812E-3,5C000400,-0724,0836,12200,028.2,045.4,0.255,765.3,01.16,0.508
2016-04-25 02:06:00,1967E-3,5C000400,-0724,0836,12208,028.2,045.4,0.255,765.4,01.16,0.508
2016-04-25 02:07:00,1729E-3,5C000400,-0724,0837,12107,028.2,045.4,0.255,765.4,01.16,0.508
2016-04-25 02:08:00,1883E-3,5C000400,-0724,0836,12107,028.2,045.4,0.255,765.3,01.16,0.508
2016-04-25 02:09:00,1940E-3,5C000400,-0724,0837,12205,028.2,045.4,0.255,765.3,01.16,0.508
2016-04-25 02:10:00,1867E-3,5C000400,-0724,0836,12124,028.2,045.4,0.255,765.2,01.16,0.508
2016-04-25 02:11:00,2051E-3,5C000400,-0724,0837,12105,028.2,045.4,0.255,765.3,01.16,0.508
2016-04-25 02:12:00,1899E-3,5C000400,-0724,0836,12208,028.2,045.4,0.255,765.3,01.16,0.508
2016-04-25 02:13:00,2050E-3,5C000400,-0724,0836,12119,028.2,045.4,0.255,765.3,01.16,0.508
2016-04-25 02:14:00,2057E-3,5C000400,-0724,0836,12010,028.2,045.4,0.255,765.2,01.16,0.508
2016-04-25 02:15:00,1756E-3,5C000400,-0724,0837,11955,028.2,045.4,0.255,765.2,01.16,0.508
2016-04-25 02:16:00,1893E-3,5C000400,-0724,0836,12022,028.2,045.4,0.255,765.1,01.16,0.508
2016-04-25 02:17:00,1886E-3,5C000400,-0724,0836,12068,028.2,045.4,0.255,765.2,01.16,0.508
2016-04-25 02:18:00,2004E-3,5C000400,-0724,0837,12256,028.2,045.4,0.255,765.2,01.16,0.508
2016-04-25 02:19:00,1954E-3,5C000400,-0724,0837,12112,028.2,045.4,0.255,765.1,01.16,0.508
2016-04-25 02:20:00,1952E-3,5C000400,-0724,0836,12121,028.2,045.4,0.255,765.1,01.16,0.508
2016-04-25 02:21:00,1977E-3,5C000400,-0724,0836,12119,028.2,045.5,0.255,765.0,01.16,0.508
2016-04-25 02:22:00,1914E-3,5C000400,-0724,0836,12094,028.2,045.4,0.255,765.0,01.16,0.508
2016-04-25 02:23:00,1887E-3,5C000400,-0724,0836,11905,028.2,045.4,0.255,765.0,01.16,0.508
2016-04-25 02:24:00,1935E-3,5C000400,-0724,0837,12183,028.3,045.4,0.255,764.9,01.16,0.508
2016-04-25 02:25:00,1879E-3,5C000400,-0724,0836,12226,028.2,045.4,0.255,765.0,01.16,0.508
2016-04-25 02:26:00,1972E-3,5C000400,-0724,0836,12109,028.2,045.4,0.255,764.9,01.16,0.508
2016-04-25 02:27:00,1806E-3,5C000400,-0724,0836,12181,028.2,045.4,0.255,764.9,01.16,0.508
2016-04-25 02:28:00,2016E-3,5C000400,-0724,0836,12087,028.2,045.4,0.255,764.9,01.16,0.508
2016-04-25 02:29:00,1871E-3,5C000400,-0724,0836,12163,028.2,045.4,0.255,764.7,01.16,0.508
2016-04-25 02:30:00,1786E-3,5C000400,-0724,0836,12194,028.2,045.4,0.255,764.9,01.16,0.508
2016-04-25 02:31:00,1807E-3,5C000400,-0724,0836,12095,028.2,045.4,0.255,764.9,01.16,0.508
2016-04-25 02:32:00,1905E-3,5C000400,-0724,0837,12030,028.2,045.4,0.255,764.6,01.16,0.508
2016-04-25 02:33:00,1780E-3,5C000400,-0724,0836,12135,028.2,045.4,0.255,764.7,01.16,0.508
2016-04-25 02:34:00,1917E-3,5C000400,-0724,0836,12024,028.2,045.4,0.255,764.8,01.16,0.508
2016-04-25 02:35:00,1912E-3,5C000400,-0724,0837,12224,028.3,045.4,0.254,764.7,01.16,0.508
2016-04-25 02:36:00,1976E-3,5C000400,-0724,0836,12099,028.3,045.4,0.255,764.7,01.16,0.508
2016-04-25 02:37:00,1866E-3,5C000400,-0724,0837,12138,028.2,045.4,0.255,764.9,01.16,0.508
2016-04-25 02:38:00,1861E-3,5C000400,-0724,0836,12070,028.3,045.4,0.255,764.5,01.16,0.508
2016-04-25 02:39:00,1789E-3,5C000400,-0724,0835,12120,028.3,045.4,0.255,764.8,01.16,0.508
2016-04-25 02:40:00,1878E-3,5C000400,-0724,0837,12101,028.3,045.4,0.255,764.8,01.16,0.508
2016-04-25 02:41:00,1799E-3,5C000400,-0724,0836,12022,028.3,045.4,0.255,764.7,01.16,0.508
2016-04-25 02:42:00,1909E-3,5C000400,-0724,0837,12138,028.3,045.4,0.255,764.7,01.16,0.508
2016-04-25 02:43:00,1893E-3,5C000400,-0724,0837,11972,028.2,045.4,0.255,764.8,01.16,0.508
2016-04-25 02:44:00,1887E-3,5C000400,-0724,0837,12230,028.3,045.4,0.255,764.7,01.16,0.508
2016-04-25 02:45:00,1851E-3,5C000400,-0724,0836,12009,028.3,045.4,0.254,764.8,01.16,0.508
2016-04-25 02:46:00,2020E-3,5C000400,-0724,0836,12110,028.3,045.4,0.255,764.8,01.16,0.508
2016-04-25 02:47:00,2016E-3,5C000400,-0724,0836,12198,028.3,045.4,0.255,764.8,01.16,0.508
2016-04-25 02:48:00,1945E-3,5C000400,-0724,0837,12165,028.3,045.4,0.255,764.9,01.16,0.508
2016-04-25 02:49:00,1906E-3,5C000400,-0724,0837,12140,028.2,045.4,0.255,764.9,01.16,0.508
2016-04-25 02:50:00,1910E-3,5C000400,-0724,0836,12095,028.3,045.5,0.255,764.9,01.16,0.508
2016-04-25 02:51:00,1828E-3,5C000400,-0724,0837,12066,028.3,045.5,0.255,764.9,01.16,0.508
2016-04-25 02:52:00,1872E-3,5C000400,-0724,0837,12029,028.2,045.4,0.255,764.9,01.16,0.508
2016-04-25 02:53:00,1975E-3,5C000400,-0724,0836,12281,028.3,045.4,0.255,764.9,01.16,0.508
2016-04-25 02:54:00,1976E-3,5C000400,-0724,0835,12080,028.3,045.4,0.255,764.9,01.16,0.508
2016-04-25 02:55:00,1921E-3,5C000400,-0724,0837,12111,028.3,045.4,0.255,764.9,01.16,0.508
2016-04-25 02:56:00,1873E-3,5C000400,-0724,0836,12141,028.3,045.4,0.255,764.9,01.16,0.508
2016-04-25 02:57:00,1851E-3,5C000400,-0724,0837,12111,028.3,045.4,0.255,765.0,01.16,0.508
2016-04-25 02:58:00,1908E-3,5C000400,-0724,0835,12021,028.3,045.4,0.255,764.9,01.16,0.508
2016-04-25 02:59:00,1893E-3,5C000400,-0724,0836,12079,028.3,045.4,0.255,764.9,01.16,0.508
2016-04-25 03:00:00,1850E-3,5C000400,-0724,0836,12120,028.3,045.4,0.255,764.9,01.16,0.508
2016-04-25 03:01:00,1874E-3,5C000400,-0724,0836,12204,028.3,045.4,0.255,764.9,01.16,0.508
2016-04-25 03:02:00,1893E-3,5C000400,-0724,0837,12235,028.3,045.4,0.255,764.9,01.16,0.508
2016-04-25 03:03:00,1877E-3,5C000400,-0724,0836,12092,028.3,045.4,0.255,765.0,01.16,0.508
2016-04-25 03:04:00,1945E-3,5C000400,-0724,0835,12198,028.3,045.4,0.255,765.0,01.16,0.508
2016-04-25 03:05:00,1873E-3,5C000400,-0724,0836,12030,028.3,045.4,0.255,764.9,01.16,0.508
2016-04-25 03:06:00,2008E-3,5C000400,-0724,0837,12284,028.3,045.4,0.255,764.9,01.16,0.508
2016-04-25 03:07:00,1914E-3,5C000400,-0724,0836,12096,028.3,045.4,0.255,764.9,01.16,0.508
2016-04-25 03:08:00,1895E-3,5C000400,-0724,0835,12036,028.3,045.4,0.255,764.9,01.16,0.508
2016-04-25 03:09:00,1909E-3,5C000400,-0724,0836,12073,028.3,045.4,0.255,764.9,01.16,0.508
2016-04-25 03:10:00,1957E-3,5C000400,-0724,0836,12097,028.3,045.4,0.255,765.0,01.16,0.508
2016-04-25 03:11:00,1847E-3,5C000400,-0724,0836,12164,028.3,045.4,0.255,765.0,01.16,0.508
2016-04-25 03:12:00,1899E-3,5C000400,-0724,0836,12165,028.3,045.4,0.254,765.0,01.16,0.508
2016-04-25 03:13:00,1922E-3,5C000400,-0724,0836,12011,028.3,045.4,0.255,765.0,01.16,0.508
2016-04-25 03:14:00,1907E-3,5C000400,-0724,0837,12185,028.3,045.4,0.255,765.0,01.16,0.508
2016-04-25 03:15:00,1839E-3,5C000400,-0724,0836,12191,028.3,045.4,0.255,765.1,01.16,0.508
2016-04-25 03:16:00,1854E-3,5C000400,-0724,0836,12230,028.3,045.4,0.254,765.0,01.16,0.508
2016-04-25 03:17:00,1817E-3,5C000400,-0724,0836,12062,028.3,045.4,0.255,765.0,01.16,0.508
2016-04-25 03:18:00,1849E-3,5C000400,-0724,0837,12154,028.3,045.4,0.255,765.0,01.16,0.508
2016-04-25 03:19:00,1898E-3,5C000400,-0724,0836,12134,028.3,045.5,0.255,765.1,01.16,0.508
2016-04-25 03:20:00,1932E-3,5C000400,-0724,0836,12201,028.3,045.4,0.255,765.1,01.16,0.508
2016-04-25 03:21:00,1847E-3,5C000400,-0724,0836,12112,028.3,045.4,0.255,765.1,01.16,0.508
2016-04-25 03:22:00,1878E-3,5C000400,-0724,0836,12193,028.3,045.4,0.255,765.0,01.16,0.508
2016-04-25 03:23:00,1878E-3,5C000400,-0724,0837,12151,028.3,045.4,0.255,765.0,01.16,0.508
2016-04-25 03:24:00,1901E-3,5C000400,-0724,0836,12061,028.3,045.4,0.255,765.1,01.16,0.508
2016-04-25 03:25:00,1721E-3,5C000400,-0724,0836,12085,028.3,045.4,0.254,765.0,01.16,0.508
2016-04-25 03:26:00,1956E-3,5C000400,-0724,0836,12126,028.3,045.4,0.255,765.0,01.16,0.508
2016-04-25 03:27:00,1915E-3,5C000400,-0724,0836,12107,028.3,045.4,0.255,764.9,01.16,0.508
2016-04-25 03:28:00,1959E-3,5C000400,-0724,0836,12109,028.4,045.4,0.255,764.9,01.16,0.508
2016-04-25 03:29:00,1843E-3,5C000400,-0724,0836,12152,028.3,045.4,0.254,764.8,01.16,0.508
2016-04-25 03:30:00,1810E-3,5C000400,-0724,0836,12165,028.4,045.4,0.255,764.8,01.16,0.508
2016-04-25 03:31:00,1869E-3,5C000400,-0724,0837,12020,028.4,045.4,0.255,764.8,01.16,0.508
2016-04-25 03:32:00,2005E-3,5C000400,-0724,0836,12103,028.4,045.4,0.255,764.7,01.16,0.508
2016-04-25 03:33:00,1976E-3,5C000400,-0724,0835,12014,028.3,045.4,0.254,764.7,01.16,0.508
2016-04-25 03:34:00,1816E-3,5C000400,-0724,0837,12149,028.4,045.4,0.255,764.7,01.16,0.508
2016-04-25 03:35:00,1976E-3,5C000400,-0724,0837,12251,028.4,045.4,0.255,764.8,01.16,0.508
2016-04-25 03:36:00,1958E-3,5C000400,-0724,0836,12153,028.4,045.4,0.255,764.8,01.16,0.508
2016-04-25 03:37:00,1977E-3,5C000400,-0724,0837,12188,028.3,045.4,0.254,764.8,01.16,0.508
2016-04-25 03:38:00,2005E-3,5C000400,-0724,0837,12101,028.3,045.4,0.255,764.7,01.16,0.508
2016-04-25 03:39:00,1869E-3,5C000400,-0724,0836,12043,028.4,045.4,0.255,764.8,01.16,0.508
2016-04-25 03:40:00,1879E-3,5C000400,-0724,0836,12188,028.4,045.4,0.255,764.8,01.16,0.508
2016-04-25 03:41:00,1969E-3,5C000400,-0724,0836,12215,028.4,045.4,0.255,764.8,01.16,0.508
2016-04-25 03:42:00,1905E-3,5C000400,-0724,0836,12054,028.4,045.4,0.254,764.7,01.16,0.508
2016-04-25 03:43:00,1868E-3,5C000400,-0724,0836,12250,028.4,045.4,0.255,764.8,01.16,0.508
2016-04-25 03:44:00,1856E-3,5C000400,-0724,0836,12068,028.4,045.4,0.255,764.8,01.16,0.508
2016-04-25 03:45:00,1812E-3,5C000400,-0724,0836,12252,028.4,045.4,0.255,764.7,01.16,0.508
2016-04-25 03:46:00,1830E-3,5C000400,-0724,0837,12091,028.4,045.4,0.254,764.7,01.16,0.508
2016-04-25 03:47:00,1932E-3,5C000400,-0724,0836,12169,028.4,045.4,0.255,764.7,01.16,0.508
2016-04-25 03:48:00,1838E-3,5C000400,-0724,0836,12149,028.4,045.4,0.255,764.7,01.16,0.508
2016-04-25 03:49:00,2041E-3,5C000400,-0724,0835,12033,028.4,045.4,0.255,764.7,01.16,0.508
2016-04-25 03:50:00,2004E-3,5C000400,-0724,0836,12051,028.4,045.4,0.255,764.6,01.16,0.508
2016-04-25 03:51:00,1868E-3,5C000400,-0724,0836,12147,028.4,045.4,0.254,764.6,01.16,0.508
2016-04-25 03:52:00,2097E-3,5C000400,-0724,0836,12086,028.4,045.4,0.255,764.6,01.16,0.508
2016-04-25 03:53:00,2006E-3,5C000400,-0724,0836,12080,028.4,045.4,0.255,764.6,01.16,0.508
2016-04-25 03:54:00,1886E-3,5C000400,-0724,0836,12076,028.4,045.4,0.255,764.6,01.16,0.508
2016-04-25 03:55:00,1905E-3,5C000400,-0724,0837,12052,028.4,045.4,0.254,764.6,01.16,0.508
2016-04-25 03:56:00,1888E-3,5C000400,-0724,0837,12204,028.4,045.4,0.255,764.7,01.16,0.508
2016-04-25 03:57:00,2058E-3,5C000400,-0724,0837,12068,028.4,045.4,0.255,764.5,01.16,0.508
2016-04-25 03:58:00,1866E-3,5C000400,-0724,0836,12227,028.4,045.4,0.255,764.6,01.16,0.508
2016-04-25 03:59:00,1876E-3,5C000400,-0724,0837,12070,028.5,045.4,0.255,764.5,01.16,0.508
2016-04-25 04:00:00,1955E-3,5C000400,-0724,0836,12056,028.4,045.4,0.254,764.5,01.16,0.508
2016-04-25 04:01:00,1972E-3,5C000400,-0724,0836,12149,028.4,045.4,0.254,764.5,01.16,0.508
2016-04-25 04:02:00,1867E-3,5C000400,-0724,0836,12148,028.5,045.4,0.254,764.6,01.16,0.508
2016-04-25 04:03:00,1831E-3,5C000400,-0724,0836,12151,028.4,045.4,0.255,764.7,01.16,0.508
2016-04-25 04:04:00,2001E-3,5C000400,-0724,0836,12198,028.5,045.4,0.255,764.5,01.16,0.508
2016-04-25 04:05:00,1783E-3,5C000400,-0724,0836,12148,028.5,045.4,0.255,764.4,01.16,0.508
2016-04-25 04:06:00,1915E-3,5C000400,-0724,0836,12120,028.5,045.4,0.255,764.4,01.16,0.508
2016-04-25 04:07:00,1941E-3,5C000400,-0724,0836,12025,028.5,045.4,0.254,764.5,01.16,0.508
2016-04-25 04:08:00,1985E-3,5C000400,-0724,0835,12131,028.5,045.4,0.255,764.3,01.16,0.508
2016-04-25 04:09:00,1933E-3,5C000400,-0724,0836,12207,028.5,045.4,0.255,764.4,01.16,0.508
2016-04-25 04:10:00,1928E-3,5C000400,-0724,0836,12135,028.5,045.5,0.255,764.5,01.16,0.508
2016-04-25 04:11:00,1845E-3,5C000400,-0724,0836,12045,028.5,045.5,0.254,764.4,01.16,0.508
2016-04-25 04:12:00,2003E-3,5C000400,-0724,0837,12015,028.5,045.4,0.255,764.4,01.16,0.508
2016-04-25 04:13:00,2014E-3,5C000400,-0724,0836,12074,028.5,045.4,0.255,764.6,01.16,0.508
2016-04-25 04:14:00,1953E-3,5C000400,-0724,0836,12120,028.5,045.4,0.255,764.4,01.16,0.508
2016-04-25 04:15:00,1832E-3,5C000400,-0724,0836,12145,028.5,045.4,0.254,764.4,01.16,0.508
2016-04-25 04:16:00,1922E-3,5C000400,-0724,0836,12179,028.5,045.4,0.254,764.3,01.16,0.508
2016-04-25 04:17:00,1838E-3,5C000400,-0724,0837,12174,028.5,045.4,0.255,764.3,01.16,0.508
2016-04-25 04:18:00,1962E-3,5C000400,-0724,0836,12113,028.6,045.4,0.255,764.4,01.16,0.508
2016-04-25 04:19:00,1853E-3,5C000400,-0724,0836,12293,028.5,045.5,0.254,764.3,01.16,0.508
2016-04-25 04:20:00,2019E-3,5C000400,-0724,0836,12300,028.5,045.4,0.254,764.4,01.16,0.508